Weather Roundup
Issued by NWS

Home | Current Version | Previous Version | Text Only | Print | Product List | Glossary On
Versions: 1 2 3 4 5 6 7 8 9 10 11 12 13 14 15 16 17 18 19 20 21 22 23 24 25 26 27 28 29 30 31 32 33 34 35 36 37 38 39 40 41 42 43 44 45 46 47 48 49 50
000
NZUS93 KARX 300810
HRRWXR

CURRENT HOURLY OBSERVATIONS ACROSS
MUCH OF THE UPPER MISSISSIPPI VALLEY
NATIONAL WEATHER SERVICE LA CROSSE WI
300 AM CDT THU JUL 30 2015


...SOUTHEAST MINNESOTA...


CITY           SKY/WX    TMP DP  RH WIND       PRES   REMARKS
ROCHESTER      CLEAR     61  55  81 W10       30.07S
ROCHESTER/MAYO FAIR      65  55  69 W10       30.05S
WINONA         CLEAR     63  55  77 CALM      30.02S
AUSTIN         CLEAR     63  57  82 W5        30.08S
ALBERT LEA     CLEAR     64  57  77 CALM      30.09S
DODGE CENTER   CLEAR     57  55  94 W7        30.07R
PRESTON        CLEAR     62  55  78 W10       30.07S
OWATONNA       CLEAR     61  55  82 SW7       30.07R
FARIBAULT      CLEAR     61  57  88 SW6       30.06S
$$

...ELSEWHERE IN MINNESOTA...


CITY           SKY/WX    TMP DP  RH WIND       PRES   REMARKS
MINNEAPOLIS    CLEAR     67  56  67 SW7       30.01S
INTNL FALLS    CLEAR     58  54  86 W7        29.84R
DULUTH         CLEAR     60  54  80 W12       29.89R
RED WING       CLEAR     63  55  77 W3        30.01R
REDWOOD FALLS  CLEAR     65  54  67 SW10      30.06S
MANKATO        CLEAR     63  54  72 W8        30.06S
WORTHINGTON    CLEAR     61  54  77 SW8       30.13S
FAIRMONT       CLEAR     64  52  63 SW8       30.09S
$$

...SOUTHWEST WISCONSIN...


CITY           SKY/WX    TMP DP  RH WIND       PRES   REMARKS
LA CROSSE      CLEAR     72  54  53 W13       30.01S
PRAIRIE DU CHI CLEAR     66  57  72 N6        30.05S
BOSCOBEL       CLEAR     62  58  86 SW3       30.04S
LONE ROCK      CLEAR     60  55  83 CALM      30.03S
PLATTEVILLE    CLEAR     61  58  90 W9        30.06S
FORT MC COY    CLEAR     56  51  83 SW3       30.02S
CAMP DOUGLAS   CLEAR     63  58  84 W7        29.99S
VIROQUA        FAIR      61  58  89 SW5       30.05S
WIS DELLS      CLEAR     65  53  63 W5        30.01S
$$

...ELSEWHERE IN WISCONSIN...


CITY           SKY/WX    TMP DP  RH WIND       PRES   REMARKS
MILWAUKEE      CLEAR     70  54  56 W6        29.97F
MADISON        CLEAR     68  56  65 W7        30.00F
GREEN BAY      CLEAR     68  55  63 W9        29.91S
EAU CLAIRE     CLEAR     63  55  75 W8        29.97S
BLACK RVR FLS  FAIR      57  52  84 CALM      29.99S
MEDFORD        PTCLDY    61  55  82 W7        29.96R
WAUSAU         CLEAR     67  54  63 W15       29.93S
WIS RAPIDS     CLEAR     64  53  67 W7        29.98S
MARSHFIELD     CLEAR     63  53  70 W8        29.97S
RICE LAKE      CLEAR     62  55  78 W6        29.98S
$$

...NORTHEAST IOWA...


CITY           SKY/WX    TMP DP  RH WIND       PRES   REMARKS
DECORAH        CLEAR     63  59  88 VRB3      30.06F
MASON CITY     CLEAR     63  59  87 W9        30.11F
CHARLES CITY   CLEAR     64  61  88 W9        30.09F
OELWEIN          N/A     61  59  94 W6        30.09F
$$

...ELSEWHERE IN IOWA...


CITY           SKY/WX    TMP DP  RH WIND       PRES   REMARKS
DES MOINES     CLEAR     67  59  75 SW6       30.13S
IOWA CITY      CLEAR     64  59  83 W6        30.11S
FORT DODGE     CLEAR     61  55  82 SW6       30.14S
$$

...NORTHERN ILLINOIS...


CITY           SKY/WX    TMP DP  RH WIND       PRES   REMARKS
CHICAGO-OHARE  CLEAR     69  57  65 W8        30.01S
CHICAGO-MIDWAY CLEAR     72  56  57 W9        30.01S
MOLINE         CLEAR     64  59  83 SW5       30.08S
ROCKFORD       CLEAR     65  58  78 W5        30.05S
PEORIA         CLEAR     68  60  75 W5        30.10R
$$

NOTE: "FAIR" INDICATES FEW OR NO CLOUDS BELOW 12,000 FEET WITH NO
SIGNIFICANT WEATHER AND/OR OBSTRUCTIONS TO VISIBILITY. WIND
SPEEDS ARE IN MILES-PER-HOUR.



USA.gov is the U.S. government's official web portal to all federal, state and local government web resources and services.